This is the latest recevied weather packets stored in our database for station/object IW3HBX-3. If no packets are shown the sender has not sent any weather packets the latest 10 day(s).
| Time | Temp. | Humidity | Pressure | Rain* | Wind** | Luminosity | Snow |
|---|---|---|---|---|---|---|---|
| 1777659908 | 17.78° C | 37% | 1025.4 hPa | 0 mm | - | 2 W/m² | - |
| 1777659608 | 17.78° C | 36% | 1025.3 hPa | 0 mm | - | 3 W/m² | - |
| 1777659308 | 17.78° C | 36% | 1025.2 hPa | 0 mm | - | 4 W/m² | - |
| 1777659009 | 18.33° C | 36% | 1025.2 hPa | 0 mm | - | 6 W/m² | - |
| 1777658944 | 18.33° C | 35% | 1025.1 hPa | 0 mm | - | 9 W/m² | - |
| 1777658709 | 18.33° C | 35% | 1025.1 hPa | 0 mm | - | 9 W/m² | - |
| 1777658109 | 18.89° C | 35% | 1025.1 hPa | 0 mm | - | 15 W/m² | - |
| 1777657810 | 18.89° C | 34% | 1025.1 hPa | 0 mm | - | 18 W/m² | - |
| 1777657510 | 18.89° C | 34% | 1025.1 hPa | 0 mm | - | 21 W/m² | - |
| 1777657210 | 19.44° C | 32% | 1024.9 hPa | 0 mm | - | 29 W/m² | - |
| 1777656910 | 19.44° C | 32% | 1025 hPa | 0 mm | - | 34 W/m² | - |
| 1777656611 | 20° C | 32% | 1025 hPa | 0 mm | - | 39 W/m² | - |
| 1777656311 | 20° C | 31% | 1025 hPa | 0 mm | - | 43 W/m² | - |
| 1777656011 | 20° C | 31% | 1024.9 hPa | 0 mm | - | 46 W/m² | - |
| 1777655711 | 20° C | 31% | 1025 hPa | 0 mm | - | 51 W/m² | - |
| 1777655412 | 20.56° C | 30% | 1025.1 hPa | 0 mm | - | 57 W/m² | - |
| 1777655112 | 20.56° C | 29% | 1025.1 hPa | 0 mm | - | 65 W/m² | - |
| 1777654812 | 20.56° C | 29% | 1025.1 hPa | 0 mm | - | 72 W/m² | - |
| 1777654512 | 20.56° C | 29% | 1025 hPa | 0 mm | - | 83 W/m² | - |
| 1777654213 | 20.56° C | 29% | 1025 hPa | 0 mm | - | 93 W/m² | - |
| 1777653913 | 20.56° C | 29% | 1025.2 hPa | 0 mm | - | 105 W/m² | - |
| 1777653613 | 21.11° C | 29% | 1025.2 hPa | 0 mm | - | 117 W/m² | - |
| 1777653313 | 20.56° C | 29% | 1025.2 hPa | 0 mm | - | 128 W/m² | - |
| 1777653014 | 20.56° C | 29% | 1025.1 hPa | 0 mm | - | 142 W/m² | - |
| 1777652714 | 20.56° C | 30% | 1025.3 hPa | 0 mm | - | 156 W/m² | - |
* Rain latest hour (hover to see other rain measurements)
** Current wind speed in m/s (hover to see current wind gust speed)